Weather History for KFLG - March, 2014

Change the Weather History Date:

Saturday, March 29, 2014

  Actual Average Record
Temperature  
Mean Temperature 41 °F 39 °F  
Max Temperature 62 °F 53 °F 70 °F (1934)
Min Temperature 20 °F 25 °F 10 °F (1944)
Degree Days  
Heating Degree Days 24 26  
Month to date heating degree days 710 816  
Since 1 July heating degree days 5311 5655  
Cooling Degree Days 0 0  
Month to date cooling degree days 0 0  
Year to date cooling degree days 0 0  
Moisture  
Dew Point 17 °F    
Average Humidity 43    
Maximum Humidity 71    
Minimum Humidity 15    
Precipitation  
Precipitation 0.00 in 0.06 in 0.83 in (1967)
Month to date precipitation 1.24 2.02  
Year to date precipitation 1.84 6.23  
Snow  
Snow 0.00 in 0.50 in 12.80 in (1998)
Month to date snowfall 1.4 19.9  
Since 1 July snowfall 34.9 93.1  
Snow Depth 0.00 in    
Sea Level Pressure  
Sea Level Pressure 30.09 in    
Wind  
Wind Speed 6 mph (SW)    
Max Wind Speed 22 mph    
Max Gust Speed 30 mph    
Visibility 10 miles    
Events      
T = Trace of Precipitation, MM = Missing Value Source: NWS Daily Summary

Daily Weather History Graph

Daily Weather History Graph

Search for Another Location

Airport or City:

Trip Planner

Search our weather history database for the weather conditions in past years. The results will help you decide how hot, cold, wet, or windy it might be!

Date:

Astronomy

Mar. 29, 2014 Rise Set
Actual Time 6:17 AM MST 6:45 PM MST
Civil Twilight 5:52 AM MST 7:11 PM MST
Nautical Twilight 5:22 AM MST 7:41 PM MST
Astronomical Twilight 4:51 AM MST 8:11 PM MST
Moon 5:26 AM MST (3/29) 5:56 PM MST (3/29)
Length of Visible Light 13h 19m
Length of Day
12h 28m
Waning Crescent, 1% of the Moon is Illuminated
Mar 29
Waning Crescent
Mar 30
New
Apr 7
First Quarter
Apr 15
Full
Apr 22
Last Quarter

Hourly Weather History & Observations

Time (MST) Temp. Windchill Dew Point Humidity Pressure Visibility Wind Dir Wind Speed Gust Speed Precip Events Conditions
12:57 AM 27.0 °F - 14.0 °F 58% 30.17 in 10.0 mi Calm Calm - N/A   Clear
1:57 AM 25.0 °F - 12.9 °F 60% 30.17 in 10.0 mi Calm Calm - N/A   Clear
2:57 AM 24.1 °F - 12.9 °F 62% 30.16 in 10.0 mi Calm Calm - N/A   Clear
3:57 AM 24.1 °F - 12.9 °F 62% 30.15 in 10.0 mi Calm Calm - N/A   Clear
4:57 AM 21.9 °F - 12.9 °F 68% 30.17 in 10.0 mi Calm Calm - N/A   Clear
5:57 AM 21.0 °F - 14.0 °F 74% 30.19 in 10.0 mi Calm Calm - N/A   Clear
6:57 AM 24.1 °F - 16.0 °F 71% 30.23 in 10.0 mi Calm Calm - N/A   Clear
7:57 AM 37.0 °F - 21.9 °F 54% 30.19 in 10.0 mi Calm Calm - N/A   Clear
8:57 AM 48.9 °F - 18.0 °F 29% 30.15 in 10.0 mi WSW 4.6 mph - N/A   Clear
9:57 AM 53.1 °F - 17.1 °F 24% 30.15 in 10.0 mi SW 8.1 mph - N/A   Clear
10:57 AM 55.9 °F - 18.0 °F 23% 30.14 in 10.0 mi SW 8.1 mph 17.3 mph N/A   Clear
11:57 AM 57.9 °F - 18.0 °F 21% 30.12 in 10.0 mi SSW 13.8 mph 20.7 mph N/A   Clear
12:57 PM 59.0 °F - 16.0 °F 19% 30.09 in 10.0 mi SW 10.4 mph 19.6 mph N/A   Clear
1:57 PM 60.1 °F - 14.0 °F 16% 30.06 in 10.0 mi SSW 15.0 mph 24.2 mph N/A   Clear
2:57 PM 60.1 °F - 12.9 °F 16% 30.05 in 10.0 mi WSW 11.5 mph 25.3 mph N/A   Clear
3:57 PM 59.0 °F - 18.0 °F 20% 30.03 in 10.0 mi South 11.5 mph 23.0 mph N/A   Clear
4:57 PM 57.9 °F - 18.0 °F 21% 30.04 in 10.0 mi SW 20.7 mph 24.2 mph N/A   Clear
5:57 PM 55.9 °F - 19.0 °F 24% 30.04 in 10.0 mi SW 11.5 mph - N/A   Clear
6:57 PM 51.1 °F - 19.9 °F 29% 30.05 in 10.0 mi SW 9.2 mph - N/A   Clear
7:57 PM 48.0 °F - 19.9 °F 33% 30.01 in 10.0 mi SSW 8.1 mph - N/A   Clear
8:57 PM 44.1 °F - 19.9 °F 38% 29.99 in 10.0 mi Calm Calm - N/A   Clear
9:57 PM 46.9 °F - 19.0 °F 33% 29.96 in 10.0 mi SW 8.1 mph - N/A   Clear
10:57 PM 43.0 °F 40.3 °F 19.0 °F 38% 29.94 in 10.0 mi SW 4.6 mph - N/A   Clear
11:57 PM 39.0 °F - 19.0 °F 45% 29.94 in 10.0 mi Calm Calm - N/A   Clear